Temperature
12 13 13 14 14 15 15 17 20 21 22 24 25 25 24 24 23 21 19 19 18 18 18 18 17 17 17 17 17 16 16 16 16 16 16 16 16 16 16 16 16 17 17 17 17 17 17 17 17
12 12 13 14 14 14 16 18 19 20 22 23 23 24 24 23 21 20 19 19 18 17 17 17 17 17 17 17 17 16 16 16 16 16 16 16 16 16 16 16 16 17 17 17 17 17 17 17 17
11 12 13 14 13 14 17 19 20 21 22 23 22 23 23 22 21 20 19 18 18 17 17 17 17 17 17 17 16 16 16 16 16 16 16 16 16 16 16 16 16 17 17 17 17 17 17 17 17
11 12 13 13 14 16 17 19 20 21 22 22 22 21 21 21 20 19 19 18 17 17 16 16 16 16 16 16 16 16 16 16 16 16 16 16 16 16 16 16 17 17 17 17 17 17 17 17 17
11 12 12 12 13 16 18 19 20 20 20 21 21 20 20 20 19 19 19 18 17 17 16 16 16 16 16 16 16 16 16 16 15 16 16 16 16 16 16 16 17 17 17 17 17 17 17 17 17
11 12 12 12 14 16 17 18 19 19 19 20 20 20 20 19 19 18 18 18 17 17 16 16 16 16 16 16 16 16 16 16 16 16 16 16 16 16 16 16 17 17 17 17 17 17 17 17 17
11 11 11 13 14 15 17 18 18 18 18 19 19 19 19 18 18 18 17 17 17 16 16 16 16 16 16 16 16 16 16 15 15 15 15 16 16 16 16 16 16 17 17 17 17 17 17 17 16
11 11 11 12 13 14 17 17 18 18 18 18 18 18 18 17 17 17 17 17 17 16 16 16 16 16 15 15 15 15 15 15 15 15 15 15 15 16 16 16 16 16 17 17 16 16 16 16 16
10 10 10 12 13 14 16 16 17 17 17 17 18 17 17 16 16 16 16 16 16 16 15 15 15 15 15 15 15 15 15 15 15 15 15 15 15 15 16 16 16 16 16 16 16 16 16 16 16
10 9 10 13 13 14 14 14 15 15 16 16 17 17 16 16 16 15 15 15 15 15 15 15 15 15 15 15 15 15 15 15 15 15 15 15 15 15 16 16 16 16 16 16 16 16 16 16 16
10 10 11 13 13 13 13 13 13 14 14 15 15 15 15 15 15 15 15 15 15 15 15 15 15 15 14 14 15 15 15 14 14 15 15 14 14 15 15 16 16 16 16 16 16 16 16 15 15
10 11 11 12 12 12 12 12 12 13 13 14 14 14 14 15 15 15 15 15 14 14 15 14 15 15 14 14 14 14 15 14 14 14 14 14 14 15 15 16 16 16 16 16 16 16 15 15 14
10 11 11 11 11 11 11 11 11 12 12 13 13 13 13 14 14 14 14 14 14 14 14 14 14 14 14 14 14 14 14 14 14 14 14 14 14 15 15 15 16 15 15 16 15 15 15 14 14
10 10 11 11 11 11 11 11 11 11 12 12 12 13 13 13 14 14 14 14 14 14 14 14 14 14 14 14 14 14 14 14 14 14 14 14 14 14 15 15 15 15 15 15 15 15 14 14 14
10 9 9 10 11 11 11 10 11 11 11 12 12 12 13 13 13 14 14 14 14 14 14 14 14 14 14 14 14 14 14 14 14 14 14 14 14 14 14 15 15 15 15 15 15 14 14 14 14
9 8 8 10 11 11 10 9 11 12 12 12 12 12 12 13 13 13 13 13 13 13 13 13 13 13 13 14 14 13 14 14 14 14 14 14 14 14 14 14 15 15 15 15 15 14 14 14 14
8 7 8 10 11 11 10 9 11 11 12 12 12 12 12 13 13 13 13 13 13 13 13 13 13 13 13 13 13 13 13 13 14 14 14 14 14 14 14 14 14 14 14 14 14 14 14 14 14
8 8 9 9 11 10 10 10 11 11 11 11 12 12 12 12 13 13 13 13 13 13 13 13 13 13 13 13 13 13 13 13 13 14 14 14 14 14 14 14 14 14 14 14 14 14 14 14 13
8 8 8 9 10 10 9 10 10 11 11 11 11 12 12 12 12 12 13 12 12 12 12 12 12 12 13 13 13 13 13 13 13 13 14 14 14 14 14 14 14 14 14 14 14 14 14 13 13
8 7 7 9 10 10 9 10 10 11 11 11 11 12 12 12 12 12 12 12 12 12 12 12 12 12 12 12 12 13 13 13 13 13 14 14 14 14 14 14 14 14 14 14 14 13 13 13 13
8 7 7 8 9 10 9 9 10 11 11 12 12 12 12 12 12 12 12 12 12 12 12 12 12 12 12 12 12 12 12 13 13 13 13 13 13 13 13 14 14 14 13 14 13 13 13 13 13
7 9 9 9 8 8 9 8 9 10 11 11 11 11 11 11 12 11 11 11 11 11 11 11 11 12 12 12 12 12 12 12 12 13 13 13 13 13 13 13 13 13 13 13 13 13 13 13 13
8 9 9 8 8 7 8 8 8 10 10 10 10 11 11 11 11 11 11 11 11 11 11 11 11 11 12 12 12 12 12 12 12 12 12 13 13 13 13 13 13 13 13 13 13 13 13 13 13
8 8 8 8 8 7 9 8 8 9 9 10 10 10 10 10 10 11 11 11 11 11 11 11 11 11 11 11 12 12 12 12 12 12 12 12 12 12 12 13 13 13 13 13 13 13 12 12 12
8 7 7 8 8 8 10 9 8 9 9 10 10 10 10 10 10 10 10 10 10 10 11 11 11 11 11 11 11 11 11 12 12 12 12 12 12 12 12 12 12 12 13 13 12 12 12 12 12
8 8 7 8 9 9 10 9 8 9 9 9 9 9 9 9 9 9 9 9 10 10 10 10 11 11 11 11 11 11 11 11 12 12 12 12 12 12 12 12 12 12 12 12 12 12 12 12 12
8 8 9 8 9 9 9 9 9 9 9 8 8 8 7 7 7 8 8 8 9 9 10 10 10 10 11 11 11 11 11 11 11 11 11 11 11 12 12 12 12 12 12 11 11 11 11 11 11
9 9 8 8 9 9 10 9 8 8 8 8 7 7 6 6 6 7 7 8 8 9 9 9 10 10 10 11 11 11 11 11 11 11 11 11 11 11 11 11 11 11 11 11 11 11 10 10 10
9 9 9 9 9 9 9 8 8 8 8 7 7 6 6 6 6 6 6 7 7 8 8 9 9 9 10 10 10 10 10 10 10 10 11 11 11 10 11 11 11 11 10 10 10 10 10 10 10
9 9 9 8 8 9 8 7 8 8 7 7 7 6 6 5 5 5 6 6 7 7 8 8 9 9 9 9 9 10 10 10 10 10 10 10 10 10 10 10 10 10 10 10 9 10 9 10 10
Wind_Speed
12 12 8 4 5 9 20 15 13 13 14 12 9 7 7 6 3 2 4 6 14 18 20 23 22 20 18 17 15 14 14 15 15 16 17 17 17 18 18 19 18 18 18 17 17 17 17 16 16
12 8 5 4 8 16 14 15 19 18 16 11 7 6 5 2 3 7 4 8 15 17 19 20 21 20 18 17 15 14 14 15 16 17 18 18 18 19 19 19 19 18 17 17 17 16 16 15 14
11 8 4 5 12 19 12 10 13 16 16 12 7 5 4 1 2 4 6 10 13 15 18 20 22 20 18 17 15 14 15 15 16 17 18 19 19 19 19 19 19 18 17 17 16 15 15 14 13
5 4 4 10 20 19 17 16 14 12 12 9 7 4 2 2 3 5 8 10 13 14 16 21 22 20 18 17 15 14 15 15 16 17 19 19 19 20 20 20 19 18 17 16 15 15 14 13 12
4 4 9 15 22 18 14 14 16 15 11 8 8 7 4 1 7 8 7 9 12 13 14 21 22 20 18 17 15 14 15 15 16 18 19 19 20 20 20 20 19 18 17 16 15 14 13 12 11
4 4 9 17 20 18 16 16 16 16 13 10 8 8 5 1 4 6 6 6 9 11 13 18 22 21 19 17 15 14 15 16 17 19 19 20 20 20 20 20 19 18 16 15 14 14 13 12 10
5 6 14 17 17 16 14 12 14 13 13 11 8 8 5 0 3 5 6 5 7 9 12 12 17 18 17 16 15 14 14 16 17 18 20 20 21 21 21 20 18 17 16 15 14 13 12 11 9
4 5 11 15 17 16 13 13 12 12 13 10 8 7 5 1 3 3 4 4 7 8 10 11 12 14 14 14 14 14 14 15 17 18 20 20 21 20 20 19 18 17 16 14 13 12 11 10 8
4 7 12 13 14 12 11 13 12 11 11 11 8 8 4 2 4 3 3 3 5 7 7 9 10 10 12 13 14 14 14 16 18 18 20 19 17 17 17 17 17 16 15 14 13 12 11 10 8
6 9 14 12 12 12 12 13 13 11 12 11 9 7 3 2 3 5 5 5 6 7 7 7 9 9 9 12 13 12 12 14 15 16 18 16 16 16 16 19 17 16 15 14 12 11 10 9 9
7 9 12 14 13 13 13 14 13 12 13 12 10 9 4 4 4 6 6 7 7 7 7 6 7 8 8 6 9 9 10 11 13 17 17 14 14 14 14 13 13 14 13 11 11 10 10 10 10
11 13 14 14 13 13 13 13 14 14 14 12 11 9 8 7 7 7 6 6 6 6 7 6 6 6 7 6 6 6 6 7 8 14 17 12 8 9 11 10 12 12 11 10 11 9 11 11 10
13 14 16 15 14 14 14 14 14 16 15 13 13 12 10 9 8 7 6 5 6 7 8 9 7 7 7 7 6 6 6 7 9 12 15 14 7 7 8 8 11 12 12 10 8 8 8 7 7
9 12 14 14 13 13 15 16 15 16 13 14 14 13 12 11 9 7 6 5 6 8 8 8 8 8 8 7 6 7 6 7 9 10 12 15 11 7 6 6 7 8 11 11 9 6 4 4 4
10 13 14 15 15 12 11 16 17 16 14 15 14 13 13 10 8 8 7 6 6 8 7 8 9 9 9 8 7 6 6 7 7 9 12 14 14 10 7 6 6 6 11 11 7 5 4 2 2
9 9 9 10 11 10 8 13 12 11 12 13 12 11 10 9 8 7 6 6 5 6 6 7 8 8 8 8 7 5 6 7 7 10 11 13 14 13 7 6 6 8 9 6 4 3 3 3 3
6 7 11 10 7 6 8 11 10 9 10 11 10 10 9 8 8 6 6 6 5 5 6 6 7 7 6 6 7 6 6 7 6 8 9 11 13 14 8 6 5 8 5 4 5 4 4 4 4
5 7 9 9 4 6 9 13 12 10 11 11 10 9 9 9 8 7 6 6 5 4 5 5 6 7 5 4 5 6 7 6 5 5 7 10 11 13 9 5 6 7 5 5 5 5 4 3 4
11 11 12 11 8 8 11 13 12 10 10 9 8 8 7 8 7 6 6 6 5 5 5 5 5 6 5 4 5 6 7 6 6 5 7 8 9 10 7 6 6 6 6 6 6 5 5 3 3
11 11 12 10 6 7 9 11 10 9 9 8 8 7 6 6 5 5 5 5 5 6 6 5 6 6 7 5 4 3 5 5 5 5 5 7 8 8 6 6 6 6 6 7 6 5 4 3 4
10 10 9 8 9 8 8 8 8 7 6 5 5 4 4 6 6 5 6 5 4 4 5 5 6 6 6 5 4 3 3 3 3 5 5 5 7 7 7 6 6 6 6 6 6 6 6 5 4
8 7 8 7 5 4 3 3 5 4 2 2 2 2 3 4 4 5 5 5 6 5 4 5 5 5 6 6 5 6 5 5 5 5 4 5 5 6 7 7 6 7 6 6 6 6 5 6 4
5 6 7 7 6 5 4 3 3 3 3 3 1 0 1 2 3 3 3 3 5 5 4 4 4 4 4 4 6 6 6 5 4 5 5 5 5 5 6 6 6 7 5 6 6 5 5 4 5
5 5 6 4 3 3 2 1 3 5 6 5 3 3 2 2 3 4 4 4 4 3 3 4 4 3 3 4 5 6 7 7 7 6 6 5 3 4 5 5 5 6 5 6 5 5 6 4 4
3 3 2 2 2 1 1 3 4 7 8 7 5 5 5 4 5 5 6 6 5 3 2 3 4 3 2 3 4 5 6 6 7 7 7 6 4 4 6 5 5 5 5 6 6 5 5 5 5
3 3 3 3 1 0 3 3 4 7 8 9 9 8 7 7 8 8 7 7 6 5 4 3 4 2 2 2 2 2 3 3 3 4 4 6 5 5 6 6 6 6 6 6 6 5 5 5 5
2 2 3 3 3 0 3 4 4 8 9 10 11 11 10 10 10 9 9 8 7 7 6 4 4 4 2 2 1 1 1 2 2 3 3 4 4 5 6 6 7 7 6 7 7 5 6 6 6
3 4 4 2 3 1 4 5 5 7 8 9 11 10 10 10 10 10 9 9 9 8 7 7 6 5 5 4 2 1 0 1 2 2 4 4 4 5 7 7 7 7 7 7 7 6 6 7 6
2 3 4 3 3 2 3 4 5 5 6 8 9 9 9 10 9 9 9 8 9 9 8 8 7 7 6 5 3 3 2 1 1 2 2 3 4 5 6 6 7 7 7 7 7 7 8 8 7
2 4 4 4 5 4 3 3 5 7 8 8 9 9 9 9 9 9 9 9 9 9 9 9 8 8 7 6 5 4 3 3 1 0 1 2 3 4 5 6 6 7 7 8 8 8 8 8 8
Wind_Direction
293 268 261 253 237 232 239 239 257 258 257 261 268 266 256 266 315 88 160 164 129 141 149 157 158 159 159 158 158 160 162 162 162 161 157 154 152 148 143 138 134 130 126 123 117 112 109 106 103
293 271 251 239 232 233 239 232 243 253 263 276 291 290 274 276 80 106 136 129 133 141 148 159 158 160 160 159 159 162 164 166 167 163 160 157 152 146 142 138 134 130 127 123 118 115 112 110 108
273 264 241 231 233 236 241 230 232 241 251 259 267 280 270 282 80 111 126 131 132 142 151 157 158 161 161 160 160 164 167 168 167 164 161 157 152 147 143 139 134 130 127 124 122 120 117 115 113
258 222 242 241 241 239 250 267 280 277 254 248 248 256 279 24 61 100 127 137 137 144 150 153 160 161 160 160 161 165 167 167 166 163 161 157 154 150 144 138 133 130 128 127 126 125 123 120 118
251 235 231 241 248 255 261 265 276 281 277 262 246 242 245 12 83 105 131 143 145 150 148 156 161 161 161 161 160 164 166 167 167 164 161 159 154 149 144 139 135 133 133 131 130 128 126 124 122
237 232 235 242 249 250 255 265 273 271 275 272 266 255 242 172 107 115 129 141 145 149 147 157 161 160 161 161 160 162 164 163 163 161 160 158 153 148 144 141 140 139 137 135 133 131 129 127 126
249 250 248 255 262 259 257 258 259 262 263 266 268 265 263 136 96 125 144 151 135 141 145 152 161 159 160 160 159 160 159 159 160 159 158 154 151 148 145 144 144 143 141 138 136 134 133 131 130
255 270 258 256 262 267 277 280 275 270 267 267 269 260 250 159 116 123 138 151 141 146 150 154 159 160 161 159 158 156 155 156 154 150 148 145 145 144 145 145 146 145 143 141 139 137 136 136 138
262 247 252 256 263 275 285 287 286 290 279 272 267 271 279 110 117 122 147 173 156 163 162 158 162 161 162 164 160 151 149 149 145 142 140 140 144 144 147 147 146 145 145 145 145 144 144 145 154
217 242 249 261 277 289 296 298 299 292 278 271 270 269 235 181 172 180 186 195 187 179 172 169 168 166 163 167 157 156 153 151 150 150 151 156 155 154 150 147 147 146 148 150 153 156 159 166 178
221 244 263 272 285 294 296 295 292 285 273 272 274 278 243 213 216 211 201 207 202 185 176 174 173 173 166 162 162 163 159 163 163 159 167 167 151 143 138 145 145 148 153 158 161 168 188 200 190
245 257 267 274 283 285 282 284 282 275 271 280 290 289 281 244 224 220 210 215 203 182 177 182 180 173 168 167 170 163 159 168 169 169 175 163 148 146 152 155 161 165 174 173 171 191 205 208 190
253 260 266 270 271 272 276 271 272 271 276 281 282 285 273 251 236 232 221 220 208 193 187 183 179 177 174 175 178 172 167 170 167 171 176 158 150 155 157 163 167 174 178 174 184 203 197 194 190
275 280 277 276 272 269 266 265 262 263 268 269 267 270 265 254 238 234 218 219 213 202 192 184 181 181 173 182 186 176 175 176 166 167 171 157 156 160 159 160 165 174 172 172 189 200 179 182 177
278 281 277 262 257 256 261 262 254 260 260 257 257 259 258 247 235 227 228 214 211 203 187 186 187 186 178 177 189 183 176 180 167 165 170 161 161 165 163 159 162 169 166 170 185 196 168 162 160
271 266 263 256 242 235 228 260 264 263 253 249 250 251 255 247 230 224 226 213 203 188 178 182 189 185 183 178 185 185 177 176 171 166 171 169 166 167 165 159 164 167 165 166 170 167 151 158 163
236 248 259 269 245 233 223 261 269 273 267 255 253 255 253 247 226 221 213 198 194 177 173 181 182 177 179 182 185 187 178 173 171 166 168 174 170 168 164 158 163 165 157 157 167 165 164 171 177
267 272 282 285 283 272 254 264 273 264 259 260 255 250 246 235 223 212 199 189 187 170 170 178 186 183 176 177 183 187 180 175 170 165 164 173 172 169 163 159 166 163 156 165 168 170 175 167 161
286 287 286 285 285 276 264 268 273 264 253 251 250 245 239 225 221 198 179 178 179 165 156 173 190 183 171 172 186 183 185 178 174 173 167 173 169 165 161 165 169 166 166 172 172 169 171 172 150
272 279 283 287 275 279 271 274 275 265 256 248 237 231 229 225 205 188 179 172 175 163 167 182 190 184 181 175 183 180 173 177 181 176 173 174 169 167 166 166 173 173 173 176 178 167 166 173 163
268 267 278 289 303 280 274 281 275 267 253 245 229 216 221 221 200 185 177 179 163 152 169 184 185 182 180 170 165 176 172 166 180 182 181 178 174 171 173 172 172 177 177 182 181 174 172 177 182
274 271 277 287 294 289 286 303 310 285 251 251 240 220 223 215 184 175 174 176 162 160 173 178 177 172 171 169 177 182 190 198 195 185 185 176 175 175 176 175 177 181 180 180 179 174 174 169 178
272 299 290 279 280 286 253 238 329 9 24 358 347 163 221 181 160 150 157 156 146 146 166 178 175 171 162 171 193 195 199 205 188 179 175 175 173 178 180 180 181 177 177 177 172 170 172 170 172
278 295 277 261 261 280 274 183 16 13 4 354 14 46 52 78 110 104 95 94 97 116 147 155 163 166 167 178 197 202 201 195 182 178 177 172 170 173 181 180 174 169 172 170 168 167 169 172 167
259 296 284 234 226 269 16 80 37 14 12 15 30 47 54 62 81 82 75 72 73 80 103 132 138 147 165 169 191 197 200 190 182 178 179 173 178 181 188 184 172 170 171 163 157 157 165 167 162
261 283 322 323 308 340 54 69 54 30 26 31 41 53 52 53 61 63 62 62 61 56 52 77 96 99 124 139 167 181 179 179 175 174 180 183 182 181 181 176 172 174 172 165 160 159 170 168 162
307 279 276 292 303 48 87 101 79 34 37 39 44 45 48 53 57 56 50 48 47 46 39 38 63 63 63 75 80 160 156 154 170 174 185 190 181 174 175 179 176 174 174 172 163 171 175 171 169
259 298 304 310 333 50 96 65 17 11 29 40 45 44 46 48 50 50 46 42 39 37 35 34 39 44 38 38 42 53 113 170 194 190 191 190 182 176 180 185 179 173 173 175 172 167 174 173 170
329 317 305 306 316 349 74 53 16 33 47 54 52 49 47 49 50 48 47 42 40 37 36 35 33 35 32 25 25 36 24 24 225 202 196 192 185 180 181 184 178 173 173 175 178 177 175 176 169
299 332 332 345 339 354 80 63 32 55 60 63 61 55 52 54 52 48 45 43 41 37 33 33 35 33 26 20 24 34 28 17 14 310 207 186 179 180 183 181 178 178 178 181 182 181 179 179 177
Height
1496 1499 1501 1503 1503 1497 1487 1480 1474 1472 1469 1467 1467 1467 1467 1471 1475 1482 1480 1480 1479 1480 1483 1487 1490 1494 1497 1500 1502 1505 1507 1510 1512 1515 1519 1522 1524 1527 1529 1531 1533 1535 1537 1539 1540 1541 1543 1544 1545
1495 1499 1502 1501 1498 1493 1481 1475 1475 1471 1468 1467 1467 1466 1467 1470 1473 1476 1478 1479 1479 1480 1483 1486 1490 1493 1496 1499 1501 1504 1507 1509 1512 1515 1518 1521 1524 1527 1530 1532 1534 1536 1538 1540 1541 1543 1544 1546 1547
1494 1498 1500 1496 1489 1483 1475 1467 1467 1467 1467 1467 1467 1467 1469 1471 1474 1475 1477 1478 1479 1481 1483 1486 1490 1493 1496 1498 1501 1503 1506 1509 1512 1515 1518 1521 1524 1527 1530 1532 1534 1537 1539 1541 1543 1544 1546 1547 1549
1496 1498 1497 1492 1480 1474 1474 1470 1465 1465 1465 1465 1467 1468 1469 1473 1473 1475 1477 1478 1479 1481 1484 1486 1489 1492 1495 1498 1500 1503 1506 1508 1511 1514 1518 1521 1524 1527 1530 1532 1535 1537 1540 1542 1544 1546 1547 1549 1550
1495 1495 1493 1486 1478 1473 1470 1469 1467 1466 1464 1465 1466 1468 1470 1472 1472 1473 1476 1478 1479 1481 1483 1486 1489 1492 1495 1498 1500 1503 1505 1508 1511 1514 1517 1521 1524 1527 1530 1533 1535 1538 1540 1542 1545 1547 1548 1550 1551
1494 1491 1489 1482 1475 1472 1470 1470 1468 1466 1465 1465 1467 1467 1469 1471 1471 1472 1475 1478 1479 1480 1482 1485 1488 1491 1494 1497 1500 1502 1505 1507 1510 1514 1517 1520 1523 1527 1530 1533 1535 1538 1541 1543 1545 1547 1549 1551 1552
1493 1489 1483 1478 1473 1470 1467 1467 1466 1465 1465 1466 1467 1467 1468 1470 1470 1471 1474 1477 1479 1479 1481 1484 1487 1490 1493 1496 1499 1502 1504 1507 1510 1513 1516 1520 1523 1526 1529 1532 1535 1538 1541 1544 1546 1548 1550 1552 1553
1490 1488 1480 1476 1474 1470 1467 1466 1464 1464 1464 1465 1467 1467 1468 1469 1469 1470 1473 1475 1477 1478 1480 1482 1485 1488 1492 1495 1498 1501 1504 1506 1509 1512 1516 1519 1523 1526 1529 1532 1535 1538 1541 1544 1546 1548 1550 1552 1554
1488 1489 1481 1476 1473 1469 1467 1465 1464 1463 1463 1463 1464 1466 1467 1467 1468 1469 1471 1473 1474 1476 1478 1480 1483 1486 1490 1493 1496 1499 1503 1506 1508 1512 1515 1519 1522 1525 1528 1531 1535 1538 1541 1543 1546 1548 1550 1552 1554
1486 1484 1477 1473 1471 1469 1467 1466 1465 1464 1462 1462 1463 1464 1465 1466 1467 1468 1469 1470 1472 1474 1476 1479 1481 1484 1488 1491 1494 1497 1501 1504 1507 1510 1514 1517 1521 1524 1527 1531 1534 1537 1540 1543 1545 1548 1550 1552 1553
1480 1477 1473 1471 1470 1469 1468 1467 1466 1465 1463 1463 1463 1463 1462 1463 1464 1465 1466 1469 1470 1472 1473 1476 1479 1482 1486 1488 1492 1495 1499 1503 1506 1509 1513 1516 1520 1523 1526 1529 1533 1536 1539 1542 1545 1547 1549 1551 1553
1476 1473 1471 1470 1469 1468 1467 1466 1465 1463 1462 1462 1461 1460 1460 1460 1461 1462 1463 1465 1467 1468 1471 1474 1476 1479 1483 1486 1490 1494 1497 1501 1504 1508 1511 1515 1518 1521 1524 1528 1531 1535 1538 1541 1544 1546 1548 1550 1552
1473 1471 1469 1468 1467 1466 1465 1464 1463 1460 1460 1459 1458 1458 1458 1459 1459 1459 1460 1462 1464 1465 1468 1470 1473 1476 1479 1483 1487 1491 1495 1499 1503 1506 1510 1513 1516 1519 1523 1526 1530 1533 1536 1539 1542 1545 1547 1549 1551
1471 1468 1466 1465 1463 1462 1462 1460 1460 1455 1457 1456 1455 1455 1455 1455 1456 1456 1457 1459 1461 1463 1465 1467 1470 1473 1476 1480 1484 1488 1492 1497 1501 1504 1507 1511 1514 1517 1521 1524 1528 1531 1535 1538 1541 1543 1546 1548 1550
1470 1468 1464 1460 1459 1458 1460 1456 1453 1451 1452 1451 1451 1451 1451 1451 1452 1452 1454 1455 1457 1460 1462 1464 1467 1470 1473 1476 1481 1485 1489 1494 1498 1501 1505 1508 1512 1516 1519 1522 1526 1529 1533 1536 1539 1542 1544 1547 1548
1469 1467 1463 1454 1452 1453 1459 1453 1447 1447 1446 1446 1446 1447 1447 1447 1447 1449 1450 1452 1454 1456 1458 1460 1464 1467 1470 1474 1478 1482 1486 1491 1495 1498 1502 1506 1509 1513 1517 1520 1524 1527 1530 1534 1537 1539 1542 1544 1546
1466 1465 1458 1451 1447 1448 1451 1448 1443 1443 1442 1441 1441 1442 1441 1442 1443 1445 1447 1449 1451 1453 1455 1457 1460 1464 1467 1471 1475 1479 1483 1487 1491 1495 1499 1503 1507 1511 1514 1518 1521 1525 1528 1531 1534 1537 1539 1541 1543
1462 1460 1454 1451 1447 1447 1447 1443 1440 1439 1438 1437 1437 1437 1437 1438 1439 1442 1444 1445 1448 1450 1453 1454 1458 1461 1464 1468 1472 1476 1480 1484 1488 1492 1496 1500 1504 1507 1511 1515 1518 1522 1525 1528 1531 1534 1536 1538 1540
1461 1459 1456 1451 1447 1447 1444 1440 1436 1434 1434 1433 1432 1433 1433 1434 1436 1438 1440 1442 1444 1447 1449 1453 1455 1458 1461 1465 1469 1472 1476 1481 1485 1489 1493 1497 1500 1504 1508 1512 1515 1518 1521 1524 1528 1530 1533 1535 1537
1460 1459 1455 1449 1445 1444 1440 1436 1432 1430 1430 1429 1430 1430 1430 1431 1433 1435 1437 1439 1442 1443 1446 1449 1451 1455 1458 1462 1465 1469 1473 1478 1482 1486 1490 1493 1496 1500 1504 1508 1512 1515 1518 1521 1524 1527 1529 1532 1534
1458 1458 1454 1450 1446 1442 1440 1436 1430 1426 1426 1426 1427 1427 1428 1429 1431 1433 1435 1437 1439 1441 1443 1446 1449 1453 1456 1459 1463 1466 1470 1475 1479 1483 1486 1489 1493 1497 1501 1504 1508 1511 1514 1517 1520 1523 1525 1527 1530
1456 1450 1449 1448 1450 1447 1442 1443 1430 1425 1425 1425 1425 1426 1427 1428 1430 1432 1433 1435 1437 1440 1442 1445 1447 1449 1453 1457 1460 1463 1466 1470 1475 1479 1482 1486 1489 1493 1497 1501 1504 1507 1510 1513 1515 1518 1521 1524 1525
1453 1448 1448 1447 1448 1447 1441 1444 1436 1428 1427 1427 1426 1426 1427 1429 1430 1432 1433 1435 1437 1439 1442 1444 1446 1448 1450 1454 1458 1461 1464 1468 1472 1475 1478 1482 1485 1489 1492 1496 1499 1502 1505 1508 1511 1514 1517 1519 1521
1452 1450 1447 1445 1447 1448 1437 1439 1441 1435 1433 1430 1427 1427 1428 1429 1430 1432 1434 1435 1436 1439 1442 1443 1445 1447 1449 1452 1455 1458 1461 1465 1468 1471 1475 1478 1481 1484 1488 1491 1494 1498 1501 1503 1506 1509 1512 1514 1516
1453 1454 1452 1449 1448 1443 1431 1437 1444 1438 1435 1432 1430 1430 1430 1431 1431 1433 1434 1435 1437 1439 1441 1442 1444 1446 1448 1450 1453 1455 1459 1461 1464 1468 1471 1474 1477 1480 1483 1487 1489 1493 1496 1498 1501 1504 1507 1509 1511
1452 1453 1454 1450 1444 1439 1433 1441 1445 1441 1438 1435 1434 1433 1433 1433 1434 1435 1436 1437 1438 1440 1441 1442 1443 1446 1447 1449 1452 1454 1456 1459 1461 1464 1467 1470 1473 1476 1479 1482 1485 1488 1491 1493 1496 1499 1501 1504 1505
1452 1451 1447 1449 1439 1439 1438 1441 1442 1442 1441 1439 1438 1438 1437 1437 1437 1437 1438 1438 1439 1440 1441 1442 1443 1445 1447 1448 1451 1453 1455 1457 1459 1462 1465 1467 1470 1472 1475 1478 1480 1483 1485 1488 1490 1493 1496 1498 1500
1451 1449 1448 1448 1443 1440 1440 1445 1452 1448 1447 1445 1444 1443 1443 1442 1441 1441 1441 1441 1441 1441 1442 1443 1444 1445 1446 1448 1450 1452 1453 1455 1457 1459 1461 1463 1466 1468 1470 1473 1475 1477 1480 1482 1484 1487 1490 1492 1494
1451 1448 1445 1444 1442 1443 1447 1458 1454 1452 1450 1450 1449 1448 1447 1446 1445 1445 1445 1444 1444 1443 1444 1444 1445 1445 1447 1448 1449 1451 1452 1453 1455 1457 1458 1460 1462 1464 1466 1468 1470 1472 1474 1477 1479 1481 1484 1487 1489
1450 1448 1447 1449 1448 1441 1450 1464 1455 1454 1454 1453 1453 1453 1452 1451 1450 1449 1449 1448 1447 1446 1446 1446 1446 1447 1447 1448 1449 1450 1451 1452 1453 1455 1456 1457 1458 1460 1462 1464 1465 1467 1470 1472 1475 1477 1479 1482 1483